Location: Northcutt
(34.7304°N, 84.4305°W)
Time: 08:20:38
(UTC+00:00)

S-56A Canister/Altair - Pass Details

Date: 11 October 2022
Orbit: 638 x 2494 km, 38.9° (Epoch: 08 December)

Event Time Altitude Azimuth Distance (km) Brightness Sun altitude
Rises 04:45:27 0° 252° (WSW) 6,163 12.2 -60.9°
Enters shadow 04:48:40 - 253° (WSW) 5,360 11.8 -61.1°
Reaches altitude 10° 04:49:32 10° 253° (WSW) 5,143 - -61.1°
Maximum altitude 05:04:33 85° 343° (NNW) 2,182 - -61.9°
Drops below altitude 10° 05:15:46 10° 72° (ENE) 3,965 - -62.2°
Sets 05:18:30 0° 74° (ENE) 4,732 - -62.3°
